Tracking 29892 objects as of 21-Nov-2024
HD Live streaming from Space Station
objects crossing your sky now

STARLINK-31351

Track STARLINK-31351 now!
10-day predictions
STARLINK-31351 is classified as:


NORAD ID: 58972
Int'l Code: 2024-031H
Perigee: 481.4 km
Apogee: 483.4 km
Inclination: 53.2 °
Period: 94.1 minutes
Semi major axis: 6853 km
RCS: Unknown
Launch date: February 15, 2023
Source: United States (US)
Launch site: AIR FORCE WESTERN TEST RANGE (AFWTR)
Your satellite tracking list
Your tracking list is empty




NASA's NSSDC Master Catalog

Two Line Element Set (TLE):
1 58972U 24031H   24325.04366088  .00002557  00000-0  98481-4 0  9995
2 58972  53.1601 341.3216 0001397 110.8140 249.3010 15.30184696 43856
Source of the keplerian elements: AFSPC